AEHF-1 (USA 214)

Last updated on Thu Nov 21 2024 00:02:41 GMT+0000 (Coordinated Universal Time)

1 36868U 10039A 24325.25535550 .00000150 00000+0 00000+0 0 9994 2 36868 6.7815 75.3362 0004001 162.0938 304.2645 1.00267616 47903
UTC large
Height (km)
Speed (km/s)
/
Latitude / Longitude
Inclination (degrees)
Orbital Period (minutes)
Azimuth
Elevation
Range (km)
Doppler Factor

Next 0 passes for location: London (51.5072 / 0.1276)

Sorry there are no passes over London.